Location: Asheville, NC
(35.6000°N, 82.5500°W)
Time: 15:58:38
(UTC-04:00)

Vanguard 3 - Pass Details

Date: 16 December 2017
Orbit: 508 x 3264 km, 33.3° (Epoch: 23 June)

Event Time Altitude Azimuth Distance (km) Brightness Sun altitude
Rises 12:25:23 0° 251° (WSW) 3,710 10.8 31.1°
Reaches altitude 10° 12:28:34 10° 247° (WSW) 2,411 10.0 31.1°
Maximum altitude 12:33:40 53° 171° (S) 750 8.5 31.0°
Drops below altitude 10° 12:37:22 10° 93° (E) 1,758 9.0 31.0°
Sets 12:39:23 0° 88° (E) 2,599 9.7 31.0°
